FENGYUN 1C DEB

Satellite information

Favourite Embed

Satellite Type and Status

DEBRISIN ORBIT

Key statistics

Satellite FENGYUN 1C DEB at a glance.

Uptime

9715

Days in orbit

Revolutions

≈ 14.2

Per day

Orbit

SSO

Sun Synchronous Orbit

Inclination

98.9

Latest

Satellite identification and parameters

Extended collection of information and parameters for FENGYUN 1C DEB.

Object identification

Identified? True

Debris? True

Object name: FENGYUN 1C DEB

International designator: 1999-025EEY

Object number (NORAD): 37064

Object ID (CCSDS): 37064

Country: PEOPLES REPUBLIC OF CHINA (PRC)

Current information (Y/N): Y

RCS size: SMALL

Orbital parameters

Period: 101.723 minutes

Inclination: 98.9095 deg

SMA: 7218.365 km

Apoapsis: 917.471 km

Periapsis: 762.988 km

RAAN: 121.83 deg

Eccentricy: 0.01070067

Argument of periapsis: 150.7609 deg

Mean anomaly: 209.9612 deg

Mean motion: 14.15612933 rev/day

Mean motion (dot): 0.00010179 rev/day2

B* drag term: 0.0049331234 1/REarth

Two-line elements (TLE)

Creation date: Nov. 26, 2025, 11:31 a.m.

Reference frame: TEME

Reference center: EARTH

Epoch: Nov. 25, 2025, 4:29 p.m. UTC

TLE line 0: 0 FENGYUN 1C DEB

TLE line 1: 1 37064U 99025EEY 25329.68691505 .00010179 00000-0 49331-2 0 9996

TLE line 2: 2 37064 98.9095 121.8300 0107007 150.7609 209.9612 14.15612933812948

Live tracking on map

Real-time ground track for satellite FENGYUN 1C DEB.

In-orbit conjunctions

A list of the most updated potential collisions computed for object FENGYUN 1C DEB.

Target Orbit TCA Probability of collision Miss distance Type
BLITS SSO 2025-09-24 19:33:38 0.0002450385 355.0 (m) PAYLOAD

Associated space launch

Chinese polar orbiting meteorological satellite

FENGYUN 1C DEB was lifted into orbit during the mission ‘Long March 4B | Feng Yun 1C’, on board a Long March 4B space rocket.

The launch took place on May 10, 1999, 1:33 a.m. from Launch Complex 7.

For more information about the launch, click the button.

Launch to space Long March 4B | Feng Yun 1C
Long March 4B | Feng Yun 1C

Agency: N/A

Status: Launch Successful

Launch date: May 10, 1999, 1:33 a.m. UTC

Rocket: Long March 4B

Launch pad: Launch Complex 7

Location: Taiyuan Satellite Launch Center, People's Republic of China

...

Latest news about this satellite

There are no fresh news available about this satellite. Check back as we update our databases every day.


Newsletter sign-up

Weekly statistics, charts and insights to help you stay on top of the space industry.